Tracking 31032 objects as of 13-Jul-2025
HD Live streaming from Space Station
objects crossing your sky now

EKRAN 4

Track EKRAN 4 now!
EKRAN 4 is classified as:


NORAD ID: 11561
Int'l Code: 1979-087A
Perigee: 35,733.0 km
Apogee: 35,840.7 km
Inclination: 6.4 °
Period: 1,435.7 minutes
Semi major axis: 42157 km
RCS: 0.1995 m2 (medium)
Launch date: October 3, 1979
Source: Commonwealth of Independent States (former USSR) (CIS)
Launch site: TYURATAM MISSILE AND SPACE COMPLEX (TTMTR)
Your satellite tracking list
Your tracking list is empty




NASA's NSSDC Master Catalog

Two Line Element Set (TLE):
1 11561U 79087A   25193.92835036  .00000089  00000-0  00000+0 0  9997
2 11561   6.4362 288.3083 0012768 187.3489 205.0036  1.00296305129524
Source of the keplerian elements: AFSPC